Location: Doschendorf
(50.0069°N, 11.0602°E)
Time: 03:05:42
(UTC+00:00)

NOAA 12 - Pass Details

Date: 22 February 2020
Orbit: 795 x 815 km, 98.5° (Epoch: 04 April)

Event Time Altitude Azimuth Distance (km) Brightness Sun altitude
Rises 04:52:25 0° 24° (NNE) 3,355 7.7 -13.9°
Reaches altitude 10° 04:55:16 10° 39° (NE) 2,417 7.1 -13.4°
Maximum altitude 04:59:29 23° 91° (E) 1,669 6.8 -12.7°
Drops below altitude 10° 05:03:39 10° 143° (SE) 2,400 7.1 -12.1°
Sets 05:06:27 0° 158° (SSE) 3,324 7.6 -11.6°
